Tracking 29892 objects as of 21-Nov-2024
HD Live streaming from Space Station
objects crossing your sky now

STARLINK-6072

Track STARLINK-6072 now!
10-day predictions
STARLINK-6072 is classified as:


NORAD ID: 56806
Int'l Code: 2023-078AR
Perigee: 574.8 km
Apogee: 578.5 km
Inclination: 70.0 °
Period: 96.1 minutes
Semi major axis: 6947 km
RCS: Unknown
Launch date: May 31, 2023
Source: United States (US)
Launch site: AIR FORCE WESTERN TEST RANGE (AFWTR)
Your satellite tracking list
Your tracking list is empty




NASA's NSSDC Master Catalog

Two Line Element Set (TLE):
1 56806U 23078AR  24325.25093764  .00000201  00000-0  24211-4 0  9994
2 56806  70.0025  60.5444 0002714 277.0452  83.0399 14.99152210 82607
Source of the keplerian elements: AFSPC